Location: Chippewa Lake
(41.0698°N, 81.9010°W)
Time: 20:42:46
(UTC+00:00)

Iridium 4 Rocket - Pass Details

Date: 09 May 2021
Orbit: 583 x 906 km, 86.9° (Epoch: 16 June)

Event Time Altitude Azimuth Distance (km) Brightness Sun altitude
Exits shadow 03:01:02 51° 140° (SE) 1,085 3.8 -22.8°
Maximum altitude 03:02:16 64° 88° (E) 969 3.8 -22.9°
Drops below altitude 10° 03:08:05 10° 8° (N) 2,587 6.8 -23.6°
Sets 03:10:36 0° 6° (N) 3,541 7.7 -23.9°
